#timestamp,LO_Frequency,Hit,StdDev 
1513224015.1,286046999.1,N
1513224016.0,286046999.1,N
1513224035.8,286046999.5,N
1513224055.7,286046996.9,Y
1513224075.5,286046998.4,P
1513224095.4,286046996.9,P
1513224115.2,286046998.5,N
1513224135.0,286046999.2,N
1513224135.9,286046999.2,N
1513224155.8,286047001.1,N
1513224175.6,286047000.5,N
1513224195.4,286047001.5,N
1513224215.3,286047004.3,Y
1513224235.1,286047005.1,P
1513224255.9,286047004.2,N
1513224275.7,286047002.3,N
1513224295.5,286047002.2,N
1513224315.4,286047002.3,N
1513224335.2,286047000.0,N
1513224355.0,286047000.0,N
1513224356.0,286047000.0,N
1513224375.8,286047002.6,N
1513224395.6,286047000.7,N
1513224415.5,286046999.1,N
1513224435.3,286046998.9,N
1513224455.1,286046998.7,N
1513224475.9,286046998.3,N
1513224495.7,286046999.1,N
1513224515.6,286046998.3,N
1513224535.4,286046999.3,N
1513224555.2,286046994.9,N
1513224575.1,286046997.8,N
1513224606.0,286046995.3,E
1513224615.0,286046998.8,N
1513224615.9,286046998.8,P
1513224635.8,286046999.7,P
1513224655.6,286047000.4,N
1513224675.4,286046999.9,N
1513224695.3,286047001.0,N
1513224715.1,286047000.1,N
1513224735.9,286047001.0,N
1513224755.7,286047000.6,N
1513224775.5,286047001.2,N
1513224795.4,286047000.6,N
1513224815.2,286047002.4,N
1513224835.1,286047000.2,N
1513224836.0,286047000.2,N
1513224855.8,286046999.8,N
1513224875.6,286047002.2,N
1513224895.5,286047000.6,N
1513224915.3,286047000.6,N
1513224935.2,286047000.2,N
1513224955.9,286047000.5,N
1513224975.7,286047000.3,N
1513224995.6,286047001.0,N
1513225015.4,286046998.6,N
1513225035.2,286047000.1,N
1513225055.1,286047001.1,N
1513225056.0,286047001.1,N
1513225075.8,286047001.1,N
1513225095.7,286047001.1,N
1513225115.5,286046999.0,N
1513225135.3,286046999.2,N
1513225155.2,286046998.5,N
1513225175.0,286046998.7,N
1513225175.9,286046998.7,N
1513225195.7,286046999.3,N
1513225215.6,286046999.5,N
1513225235.4,286046998.8,N
1513225255.3,286046997.0,N
1513225275.1,286046997.1,N
1513225276.0,286046997.1,N
1513225295.8,286046997.4,N
1513225315.7,286046998.0,N
1513225335.5,286046998.0,N
1513225355.4,286046996.7,N
1513225375.2,286046997.2,N
1513225395.0,286046995.1,Y
1513225395.9,286046995.1,P
1513225415.8,286046997.5,N
1513225435.6,286046996.8,N
1513225455.5,286046997.2,N
1513225475.3,286046997.1,N
1513225495.1,286046997.3,N
1513225515.9,286046997.7,N
1513225535.7,286046993.7,Y
1513225555.5,286046997.0,P
1513225575.4,286046996.7,P
1513225595.2,286046999.0,P
1513225615.1,286046997.5,N
1513225616.0,286046997.5,Y
1513225635.8,286046998.3,P
1513225655.6,286046998.3,P
1513225675.5,286047000.2,N
1513225695.3,286047000.0,N
1513225715.1,286047000.9,N
1513225735.9,286046999.3,N
1513225755.7,286046999.1,N
1513225775.6,286046996.5,Y
1513225795.4,286047000.9,P
1513225815.2,286046998.5,N
1513225835.1,286046998.5,N
1513225836.0,286046998.5,N
1513225855.8,286046999.0,N
1513225875.7,286046999.1,N
1513225895.5,286046998.1,N
1513225915.3,286047000.1,N
1513225935.2,286046999.8,N
1513225955.0,286046998.1,N
1513225955.9,286046998.1,N
1513225975.7,286047001.1,N
1513225995.6,286046999.4,N
1513226015.4,286046996.6,Y
1513226035.3,286046998.8,P
1513226055.1,286046998.2,P
1513226075.8,286046996.5,P
1513226095.7,286046998.3,N
1513226115.5,286046998.8,N
1513226135.4,286047001.2,N
1513226155.2,286046999.0,N
1513226175.0,286046999.0,N
1513226175.9,286046999.0,N
1513226195.8,286046999.1,N
1513226215.6,286046997.0,N
1513226235.4,286046998.7,N
1513226255.3,286046999.1,N
1513226275.1,286046999.0,N
1513226295.9,286047000.8,N
1513226315.7,286047002.3,N
1513226335.5,286047000.1,N
1513226355.4,286047002.6,N
1513226375.2,286046999.9,N
1513226395.1,286047000.4,N
1513226396.0,286047000.4,N
1513226415.8,286047001.3,N
1513226435.6,286047001.9,N
1513226455.5,286047001.9,N
1513226475.3,286047002.5,N
1513226495.1,286047002.8,N
1513226515.9,286047000.1,N
1513226535.7,286047001.4,N
1513226555.6,286047006.0,Y
1513226575.4,286047003.5,P
1513226595.2,286047002.5,N
1513226615.1,286047001.3,N
1513226616.0,286047001.3,N
1513226635.8,286047002.0,N
1513226655.7,286047002.8,N
1513226675.5,286047001.6,N
1513226695.3,286047001.6,N
1513226715.2,286047001.5,N
1513226735.0,286047000.9,N
1513226735.9,286047000.9,N
1513226755.8,286047002.8,Y
1513226775.6,286046998.2,P
1513226795.4,286047000.0,N
1513226815.3,286046998.1,N
1513226835.1,286046999.8,N
1513226855.9,286046999.8,N
1513226875.7,286046999.8,N
1513226895.5,286046998.2,N
1513226915.4,286046998.6,N
1513226935.2,286046999.4,N
1513226955.0,286046998.2,N
1513226955.9,286046998.2,N
1513226975.8,286047000.4,N
1513226995.6,286046999.6,N
1513227015.5,286046999.3,N
1513227035.3,286046999.6,N
1513227055.1,286046996.6,Y
1513227075.9,286046998.4,P
1513227095.7,286046998.4,P
1513227115.5,286046998.1,P
1513227135.4,286046999.2,N
1513227155.2,286046996.8,Y
1513227175.1,286047000.8,P
1513227176.0,286047000.8,N
1513227195.8,286047000.7,N
1513227215.6,286046998.5,N
1513227235.5,286047000.7,N
1513227255.3,286047001.2,N
1513227275.2,286046999.2,N
1513227295.9,286046998.9,N
1513227315.7,286046998.8,N
1513227335.6,286046998.9,N
1513227355.4,286047000.7,N
1513227375.2,286046998.4,N
1513227395.1,286046998.1,N
1513227396.0,286046998.1,N
1513227415.8,286046998.7,N
1513227435.7,286046998.1,N
1513227455.5,286046999.3,N
1513227475.3,286046996.5,Y
1513227495.2,286046998.4,P
1513227515.0,286046999.5,N
1513227515.9,286046999.5,N
1513227535.8,286046998.2,Y
1513227555.6,286046999.8,P
1513227575.4,286047000.0,N
1513227595.3,286046999.8,N
